Location: Diguira
(13.1838°N, 4.9109°W)
Time: 15:33:47
(UTC+00:00)

GPS 2-04 Rocket1 - Pass Details

Date: 18 September 2020
Orbit: 418 x 547 km, 35.6° (Epoch: 19 October)

Event Time Altitude Azimuth Distance (km) Brightness Sun altitude
Rises 19:43:43 0° 318° (NW) 2,690 7.1 -21.6°
Reaches altitude 10° 19:46:13 10° 330° (NNW) 1,789 5.9 -22.2°
Enters shadow 19:48:58 27° 7° (N) 1,053 4.2 -22.8°
